• In Hungary
  • List of Countries
  • For 7 days
  • Water Temperature
  • Satellite Maps
  • Weather Map
  • News
  • Weather Widgets
  • user-avatar
    Login

    Hourly Weather Mosteczna

    Today, 17 January, Wednesday

    Time Temperature Precipitation Wind Pressure Humidity
    00:00 -4°C° 0 mm 5 mps 714 mmHg 79%
    01:00 -3°C° 0 mm 4 mps 713 mmHg 80%
    02:00 -3°C° 0 mm 4 mps 713 mmHg 81%
    03:00 -3°C° 0 mm 4 mps 713 mmHg 82%
    04:00 -3°C° 0 mm 4 mps 713 mmHg 83%
    05:00 -2°C° 0 mm 3 mps 713 mmHg 84%
    06:00 -2°C° 0 mm 3 mps 713 mmHg 86%
    07:00 -3°C° 0 mm 2 mps 713 mmHg 88%
    08:00 -2°C° 0 mm 2 mps 713 mmHg 85%
    09:00 -1°C° 0 mm 2 mps 713 mmHg 82%
    10:00 -1°C° 0 mm 2 mps 713 mmHg 79%
    11:00 +1°C° 0 mm 2 mps 712 mmHg 77%
    12:00 +1°C° 0 mm 2 mps 712 mmHg 74%
    13:00 +2°C° 0 mm 2 mps 712 mmHg 71%
    14:00 +2°C° 0.2 mm 1 mps 712 mmHg 77%
    15:00 +2°C° 0.2 mm 1 mps 712 mmHg 82%
    16:00 +1°C° 0.2 mm 1 mps 712 mmHg 87%
    17:00 +1°C° 0.3 mm 1 mps 713 mmHg 89%
    18:00 0°C° 0.3 mm 1 mps 713 mmHg 90%
    19:00 -2°C° 0.3 mm 2 mps 713 mmHg 92%
    20:00 -2°C° 0.3 mm 2 mps 713 mmHg 92%
    21:00 -2°C° 0.3 mm 3 mps 714 mmHg 92%
    22:00 -2°C° 0.3 mm 3 mps 714 mmHg 92%
    23:00 -3°C° 0.4 mm 4 mps 715 mmHg 91%

    Tomorrow, 18 January, Thursday

    Time Temperature Precipitation Wind Pressure Humidity
    00:00 -3°C° 0.4 mm 4 mps 716 mmHg 90%
    01:00 -4°C° 0.4 mm 5 mps 716 mmHg 89%
    02:00 -4°C° 0.2 mm 5 mps 717 mmHg 87%
    03:00 -4°C° 0.2 mm 5 mps 717 mmHg 86%
    04:00 -4°C° 0.2 mm 5 mps 718 mmHg 84%
    05:00 -4°C° 0.1 mm 5 mps 719 mmHg 84%
    06:00 -4°C° 0.1 mm 5 mps 719 mmHg 83%
    07:00 -4°C° 0.1 mm 4 mps 720 mmHg 82%
    08:00 -3°C° 0 mm 4 mps 720 mmHg 80%
    09:00 -2°C° 0 mm 5 mps 721 mmHg 78%
    10:00 -2°C° 0 mm 5 mps 721 mmHg 76%
    11:00 -1°C° 0 mm 5 mps 721 mmHg 74%
    12:00 -1°C° 0 mm 4 mps 721 mmHg 71%
    13:00 0°C° 0 mm 4 mps 721 mmHg 68%
    14:00 0°C° 0 mm 3 mps 721 mmHg 71%
    15:00 -1°C° 0 mm 3 mps 720 mmHg 74%
    16:00 -2°C° 0 mm 2 mps 720 mmHg 77%
    17:00 -1°C° 0.2 mm 3 mps 719 mmHg 77%
    18:00 -2°C° 0.2 mm 4 mps 719 mmHg 77%
    19:00 -2°C° 0.2 mm 5 mps 718 mmHg 78%
    20:00 -1°C° 0.2 mm 5 mps 717 mmHg 77%
    21:00 -2°C° 0.2 mm 6 mps 716 mmHg 77%
    22:00 -1°C° 0.2 mm 6 mps 715 mmHg 76%
    23:00 -1°C° 0.3 mm 6 mps 715 mmHg 77%

    Day after tomorrow, 19 January, Friday

    Time Temperature Precipitation Wind Pressure Humidity
    00:00 -1°C° 0.3 mm 6 mps 714 mmHg 79%
    01:00 -1°C° 0.3 mm 6 mps 714 mmHg 80%
    02:00 -1°C° 0 mm 6 mps 714 mmHg 79%
    03:00 -1°C° 0 mm 6 mps 714 mmHg 79%
    04:00 -1°C° 0 mm 6 mps 714 mmHg 78%
    05:00 0°C° 0 mm 5 mps 714 mmHg 78%
    06:00 -1°C° 0 mm 5 mps 714 mmHg 79%
    07:00 -1°C° 0 mm 5 mps 714 mmHg 80%
    08:00 -2°C° 0 mm 6 mps 715 mmHg 76%
    09:00 -2°C° 0 mm 7 mps 716 mmHg 72%
    10:00 -2°C° 0 mm 8 mps 717 mmHg 69%
    11:00 -2°C° 0 mm 8 mps 717 mmHg 69%
    12:00 -2°C° 0 mm 8 mps 718 mmHg 69%
    13:00 -2°C° 0 mm 8 mps 719 mmHg 69%
    14:00 -2°C° 0 mm 7 mps 719 mmHg 71%
    15:00 -3°C° 0 mm 6 mps 720 mmHg 73%
    16:00 -2°C° 0 mm 5 mps 721 mmHg 75%
    17:00 -3°C° 0 mm 4 mps 721 mmHg 79%
    18:00 -4°C° 0 mm 3 mps 721 mmHg 83%
    19:00 -4°C° 0 mm 2 mps 722 mmHg 87%
    20:00 -3°C° 0 mm 2 mps 722 mmHg 85%
    21:00 -3°C° 0 mm 2 mps 723 mmHg 84%
    22:00 -2°C° 0 mm 3 mps 723 mmHg 82%
    23:00 -2°C° 0.1 mm 2 mps 723 mmHg 82%

    20 January, Saturday

    Time Temperature Precipitation Wind Pressure Humidity
    00:00 -2°C° 0.1 mm 2 mps 723 mmHg 82%
    01:00 -2°C° 0.1 mm 2 mps 723 mmHg 82%
    02:00 -3°C° 0 mm 2 mps 723 mmHg 84%
    03:00 -3°C° 0 mm 2 mps 723 mmHg 85%
    04:00 -4°C° 0 mm 2 mps 723 mmHg 87%
    05:00 -4°C° 0 mm 2 mps 723 mmHg 87%
    06:00 -2°C° 0 mm 1 mps 723 mmHg 87%
    07:00 -2°C° 0 mm 1 mps 723 mmHg 87%
    08:00 -1°C° 0 mm 1 mps 723 mmHg 83%
    09:00 0°C° 0 mm 1 mps 723 mmHg 79%
    10:00 0°C° 0 mm 1 mps 723 mmHg 76%
    11:00 +1°C° 0 mm 1 mps 723 mmHg 73%
    12:00 +2°C° 0 mm 1 mps 722 mmHg 70%
    13:00 +2°C° 0 mm 1 mps 722 mmHg 68%
    14:00 +1°C° 0 mm 1 mps 722 mmHg 72%
    15:00 +1°C° 0 mm 1 mps 722 mmHg 77%
    16:00 0°C° 0 mm 1 mps 722 mmHg 81%
    17:00 -1°C° 0 mm 1 mps 722 mmHg 82%
    18:00 -1°C° 0 mm 1 mps 722 mmHg 84%
    19:00 -3°C° 0 mm 2 mps 722 mmHg 85%
    20:00 -1°C° 0 mm 1 mps 722 mmHg 85%
    21:00 -1°C° 0 mm 1 mps 722 mmHg 84%
    22:00 -1°C° 0 mm 1 mps 722 mmHg 84%
    23:00 -3°C° 0.1 mm 2 mps 722 mmHg 85%

    21 January, Sunday

    Time Temperature Precipitation Wind Pressure Humidity
    00:00 -3°C° 0.1 mm 2 mps 722 mmHg 87%
    01:00 -4°C° 0.1 mm 3 mps 723 mmHg 89%
    02:00 -4°C° 0.2 mm 3 mps 723 mmHg 89%
    03:00 -4°C° 0.2 mm 3 mps 723 mmHg 90%
    04:00 -4°C° 0.2 mm 3 mps 723 mmHg 90%
    05:00 -4°C° 0.1 mm 3 mps 724 mmHg 90%
    06:00 -4°C° 0.1 mm 3 mps 724 mmHg 89%
    07:00 -4°C° 0.1 mm 3 mps 725 mmHg 89%
    08:00 -4°C° 0.1 mm 3 mps 725 mmHg 87%
    09:00 -4°C° 0.1 mm 3 mps 726 mmHg 85%
    10:00 -2°C° 0.1 mm 3 mps 726 mmHg 83%
    11:00 -2°C° 0.1 mm 3 mps 727 mmHg 82%
    12:00 -2°C° 0.1 mm 3 mps 727 mmHg 80%
    13:00 -1°C° 0.1 mm 3 mps 727 mmHg 79%
    14:00 -2°C° 0.1 mm 3 mps 727 mmHg 81%
    15:00 -2°C° 0.1 mm 2 mps 728 mmHg 83%
    16:00 -2°C° 0.1 mm 2 mps 728 mmHg 86%
    17:00 -3°C° 0.1 mm 2 mps 729 mmHg 88%
    18:00 -3°C° 0.1 mm 2 mps 729 mmHg 90%
    19:00 -2°C° 0.1 mm 1 mps 730 mmHg 92%
    20:00 -2°C° 0.1 mm 1 mps 730 mmHg 92%
    21:00 -2°C° 0.1 mm 1 mps 730 mmHg 92%
    22:00 -2°C° 0.1 mm 1 mps 730 mmHg 92%
    23:00 -3°C° 0 mm 1 mps 730 mmHg 92%

    22 January, Monday

    Time Temperature Precipitation Wind Pressure Humidity
    00:00 -3°C° 0 mm 1 mps 731 mmHg 91%
    01:00 -3°C° 0 mm 1 mps 731 mmHg 91%
    02:00 -3°C° 0 mm 1 mps 730 mmHg 90%
    03:00 -4°C° 0 mm 1 mps 730 mmHg 90%
    04:00 -4°C° 0 mm 1 mps 730 mmHg 89%
    05:00 -4°C° 0 mm 1 mps 730 mmHg 88%
    06:00 -4°C° 0 mm 1 mps 730 mmHg 88%
    07:00 -4°C° 0 mm 1 mps 731 mmHg 87%
    08:00 -3°C° 0 mm 1 mps 731 mmHg 84%
    09:00 -2°C° 0 mm 1 mps 731 mmHg 81%
    10:00 -3°C° 0 mm 2 mps 731 mmHg 78%
    11:00 -3°C° 0 mm 2 mps 731 mmHg 76%
    12:00 -2°C° 0 mm 2 mps 731 mmHg 73%
    13:00 -1°C° 0 mm 2 mps 731 mmHg 71%
    14:00 -2°C° 0 mm 2 mps 731 mmHg 74%
    15:00 -2°C° 0 mm 2 mps 731 mmHg 77%
    16:00 -3°C° 0 mm 2 mps 731 mmHg 80%
    17:00 -3°C° 0 mm 2 mps 731 mmHg 82%
    18:00 -4°C° 0 mm 2 mps 732 mmHg 84%
    19:00 -4°C° 0 mm 2 mps 732 mmHg 86%
    20:00 -4°C° 0 mm 2 mps 732 mmHg 87%
    21:00 -5°C° 0 mm 2 mps 732 mmHg 88%
    22:00 -5°C° 0 mm 2 mps 733 mmHg 89%
    23:00 -5°C° 0 mm 2 mps 733 mmHg 89%
    Show more